sat.trackr.live / text

‹ back to catalog

STARLINK-35030

NORAD 65448 · 2025-194Q

PAYLOAD ACTIVE UNKNOWN

§ Identity

Operator
Country
US
Launch date
2025-09-03
Launch site
AFWTR
Launch vehicle
Mass (kg)
RCS (m²)

Purposes: comms

External: N2YO · Heavens-Above · Gunter

§ Orbital elements

Epoch: 2026-05-25T02:18:30.936096Z

Period
95.64 min
Inclination
97.4512°
Eccentricity
0.0002035
Mean motion
15.05656958 rev/d
Perigee alt
548.1 km
Apogee alt
550.9 km
Semi-major
6,927.6 km
B*
2.1227e-4
RAAN
359.3089°
Arg perigee
80.5128°
Mean anomaly
279.6329°
Rev number
4,114

§ Raw data

STARLINK-350301 65448U 25194Q   26145.09619139  .00003006  00000+0  21227-3 0  99992 65448  97.4512 359.3089 0002035  80.5128 279.6329 15.05656958 41146

JSON: /api/v1/satellites/65448 · /tle

For live sub-satellite position, see the globe view (requires WebGL).

§ Visibility from observer

Set your observer location to see the next 7 days of passes ≥ 10°. The values pass through the URL so the page stays shareable.

No JS? Fill the form by hand. The geolocation button needs JavaScript.